[Iaude] MPEC X160: 2023 XU4 [a=1.25,e=0.24,i=6.9,H=27.3]

mpec at marsden.cfa.harvard.edu mpec at marsden.cfa.harvard.edu
Fri Dec 8 14:14:41 EST 2023


M.P.E.C. 2023-X160                             Issued 2023 December 8, 19:13 UT

     The Minor Planet Electronic Circulars contain information on unusual
         minor planets, routine data on comets and natural satellites,
         and occasional editorial announcements.  They are published
    on behalf of Division F of the International Astronomical Union by the
          Minor Planet Center, Smithsonian Astrophysical Observatory,
                          Cambridge, MA 02138, U.S.A.
			  
             Prepared using the Tamkin Foundation Computer Network

                              MPC at CFA.HARVARD.EDU
            URL https://www.minorplanetcenter.net/    ISSN 1523-6714

                                    2023 XU4                                    


Observations:
     K23X04U*KC2023 12 07.28045 04 59 18.18 +54 15 42.0          20.8 GVEX160W16
     K23X04U KC2023 12 07.29259 04 59 27.89 +54 14 59.0          20.3 GVEX160W16
     K23X04U KC2023 12 07.30430 04 59 37.23 +54 14 15.7          21.1 GVEX160W16
     K23X04U  C2023 12 07.43367805 01 35.203+54 06 14.09         19.9 GVEX160H01
     K23X04U  C2023 12 07.44375905 01 44.162+54 05 29.21         20.3 GVEX160H01
     K23X04U  C2023 12 07.44839105 01 48.315+54 05 08.40         20.0 GVEX160H01
     K23X04U KB2023 12 07.76829 05 08 09.59 +53 43 54.2                ZEX160106
     K23X04U KB2023 12 07.77268 05 08 14.06 +53 43 41.5          19.8 RZEX160106
     K23X04U KB2023 12 07.77692 05 08 18.43 +53 43 29.1          20.6 RZEX160106
     K23X04U KB2023 12 07.78116 05 08 22.66 +53 43 17.4          20.8 RZEX160106
     K23X04U KC2023 12 07.88277505 10 02.73 +53 37 53.3          20.5 GVEX160L01
     K23X04U KC2023 12 07.88445805 10 04.36 +53 37 47.1          20.7 GVEX160L01
     K23X04U KC2023 12 07.88614105 10 05.99 +53 37 41.0          20.5 GVEX160L01
     K23X04U KC2023 12 07.88719305 10 07.01 +53 37 37.3          20.6 GVEX160L01
     K23X04U KC2023 12 07.96238605 11 19.36 +53 32 38.7          20.5 GVEX160K51
     K23X04U KC2023 12 07.96779505 11 24.51 +53 32 16.1          20.6 GVEX160K51
     K23X04U KC2023 12 07.97320405 11 29.68 +53 31 53.0          20.6 GVEX160K51
     K23X04U KC2023 12 08.14057605 14 22.517+53 18 01.08         20.7 GVEX160J95
     K23X04U KC2023 12 08.15401205 14 36.742+53 16 48.43         20.7 GVEX160J95
     K23X04U KC2023 12 08.16214305 14 45.470+53 16 03.14         20.3 GVEX160J95
     K23X04U KC2023 12 08.21162305 16 10.03 +53 14 28.1          20.7 GVEX160H21
     K23X04U KC2023 12 08.21451305 16 12.86 +53 14 15.4                VEX160H21
     K23X04U KC2023 12 08.21684405 16 15.17 +53 14 04.5                VEX160H21
     K23X04U KC2023 12 08.25454205 17 02.47 +53 11 23.6          20.4 GXEX160858
     K23X04U KC2023 12 08.26034705 17 08.24 +53 10 57.7          20.7 GXEX160858
     K23X04U KC2023 12 08.26781005 17 15.62 +53 10 24.3          20.2 GXEX160858

Observer details:
106 Crni Vrh.  Observer H. Mikuz.  0.60-m f/3.3 reflector + CMO.
858 Tebbutt Observatory, Edgewood.  Observer F. B. Zoltowski.  0.51-m f/8.1
    Schmidt-Cassegrain + CCD.
H01 Magdalena Ridge Observatory, Socorro.  Observers W. H. Ryan, E. V. Ryan.
    Measurer W. H. Ryan.  2.4-m f/8.9 Ritchey-Chretien + CCD.
H21 Astronomical Research Observatory, Westfield.  Observer R. Holmes.
    Measurers T. Linder, R. Holmes, L. Horn.  0.76-m f/3.0 astrograph + CCD.
J95 Great Shefford.  Observer P. Birtwhistle.  0.41-m f/6.3 Schmidt-Cassegrain
    + CCD.
K51 Osservatorio del Celado, Castello Tesino.  Observer M. Campestrin.  0.80-m
    f/4 reflector + CCD.
L01 Visnjan Observatory, Tican.  Observers K. Korlevic, I. Lyon.  Measurer K.
    Korlevic.  1.0-m f/2.9 reflector + CCD.
W16 Pleasant Groves Observatory.  Observer M. Holbrook.  0.36-m f/2.2
    reflector + CCD.

Orbital elements:
2023 XU4                                                 Earth MOID = 0.0050 AU
Epoch 2023 Sept. 13.0 TT = JDT 2460200.5                Veres                   
M 270.93258              (2000.0)            P               Q                  
n   0.70496521     Peri.  219.83010     -0.51702566     -0.84758837             
a   1.2503289      Node   261.61389     +0.81289631     -0.44247437             
e   0.2421247      Incl.    6.93734     +0.26811200     -0.29293411             
P   1.40           H   27.34          G   0.15           U   7                  
Residuals in seconds of arc
231207 W16  0.4+  0.2-    231207 106  0.2-  0.4+    231208 J95  0.0   0.6+
231207 W16  0.1-  0.4+    231207 L01  0.3-  0.1-    231208 J95  0.5+  0.1+
231207 W16 (1.5-  0.5+)   231207 L01  0.1-  0.3-    231208 H21  0.3+  0.6+
231207 H01  0.3-  0.0     231207 L01  0.1+  0.4-    231208 H21  0.0   0.7+
231207 H01  0.2-  0.0     231207 L01  0.2+  0.3-    231208 H21  0.0   0.2+
231207 H01  0.2-  0.0     231207 K51  0.1-  0.5-    231208 858  0.6-  0.1-
231207 106  0.0   0.0     231207 K51  0.1-  0.2-    231208 858  0.5-  0.2-
231207 106  0.1-  0.1-    231207 K51  0.0   0.1-    231208 858  0.8-  0.1+
231207 106  0.4+  0.2-    231208 J95  0.1-  0.0

Ephemeris:
2023 XU4                 a,e,i = 1.25, 0.24, 7                   q = 0.9476
Date    TT    R. A. (2000) Decl.     Delta      r    Elong.  Phase     V
2023 11 08    03 14 34.0 +52 31 19   0.1408  1.1073   143.5    32.2    24.7
...
2023 11 23    03 30 15.3 +55 31 04   0.08033 1.0540   144.4    33.0    23.4
...
2023 12 01    03 57 54.9 +56 08 21   0.05067 1.0282   145.1    33.2    22.3
...
2023 12 07    04 54 58.5 +54 28 16   0.02949 1.0105   148.0    31.1    21.0
2023 12 08    05 11 58.9 +53 29 16   0.02612 1.0077   149.0    30.2    20.7
2023 12 09    05 32 40.7 +51 58 47   0.02283 1.0049   150.1    29.2    20.4
...
2023 12 15    09 14 23.5 -00 22 20   0.01011 0.9895   120.0    59.5    19.5
...
2023 12 23    12 35 33.3 -50 27 01   0.03111 0.9719    67.0   111.3    24.0
...
2024 01 07    14 00 24.4 -55 30 30   0.08253 0.9506    64.4   111.1    26.1

M. P. C. Staff               (C) Copyright 2023 MPC           M.P.E.C. 2023-X160





More information about the Iaude mailing list